Weather History for Shelby, NC

Change the Weather History Date:

Friday, October 5, 2012

  Actual Average (KHKY) Record (KHKY)
Temperature  
Mean Temperature 66 °F -  
Max Temperature 78 °F 74 °F 107 °F (1996)
Min Temperature 53 °F 50 °F 34 °F (1968)
Growing Degree Days 16 (Base 50)    
Moisture  
Dew Point 55 °F    
Average Humidity 79    
Maximum Humidity 100    
Minimum Humidity 42    
Precipitation  
Precipitation 0.00 in - - ()
Sea Level Pressure  
Sea Level Pressure 30.15 in    
Wind  
Wind Speed 1 mph (SSE)    
Max Wind Speed 6 mph    
Max Gust Speed -    
Visibility 9 miles    
Events      
Averages and records for this station are not official NWS values.
T = Trace of Precipitation, MM = Missing Value Source: NWS Daily Summary

Daily Weather History Graph

Daily Weather History Graph

Search for Another Location

Airport:

Trip Planner

Search our weather history database for the weather conditions in past years. The results will help you decide how hot, cold, wet, or windy it might be!

Date:

Astronomy

Oct. 05, 2012 Rise Set
Actual Time 7:24 AM EDT 7:03 PM EDT
Civil Twilight 6:59 AM EDT 7:29 PM EDT
Nautical Twilight 6:29 AM EDT 7:58 PM EDT
Astronomical Twilight 6:00 AM EDT 8:28 PM EDT
Moon 10:36 PM EDT (10/5) 12:21 PM EDT (10/5)
Length of Visible Light 12h 29m
Length of Day
11h 39m
Waning Gibbous, 74% of the Moon is Illuminated
Oct 5
Waning Gibbous
Oct 8
Last Quarter
Oct 15
New
Oct 21
First Quarter
Oct 29
Full

Hourly Weather History & Observations

Time (EDT) Temp. Dew Point Humidity Pressure Visibility Wind Dir Wind Speed Gust Speed Precip Events Conditions
12:15 AM 60.8 °F 59.0 °F 94% 30.24 in 10.0 mi Calm Calm - N/A   Clear
2:35 AM 57.2 °F 55.4 °F 94% 30.21 in 10.0 mi Calm Calm - N/A   Clear
2:55 AM 57.2 °F 55.4 °F 94% 30.21 in 7.0 mi NNE 3.5 mph - N/A   Clear
3:15 AM 55.4 °F 55.4 °F 100% 30.20 in 10.0 mi Calm Calm - N/A   Clear
3:35 AM 55.4 °F 53.6 °F 94% 30.20 in 10.0 mi Calm Calm - N/A   Clear
4:15 AM 55.4 °F 53.6 °F 94% 30.19 in 7.0 mi Calm Calm - N/A   Clear
4:35 AM 55.4 °F 53.6 °F 94% 30.20 in 10.0 mi Calm Calm - N/A   Clear
4:55 AM 55.4 °F 53.6 °F 94% 30.20 in 10.0 mi Calm Calm - N/A   Clear
5:15 AM 55.4 °F 53.6 °F 94% 30.20 in 7.0 mi Calm Calm - N/A   Clear
5:35 AM 53.6 °F 53.6 °F 100% 30.20 in 7.0 mi Calm Calm - N/A   Clear
5:55 AM 53.6 °F 51.8 °F 94% 30.20 in 7.0 mi Calm Calm - N/A   Clear
6:15 AM 53.6 °F 51.8 °F 94% 30.20 in 4.0 mi Calm Calm - N/A   Clear
6:35 AM 53.6 °F 51.8 °F 94% 30.20 in 5.0 mi Calm Calm - N/A   Clear
6:55 AM 53.6 °F 51.8 °F 94% 30.21 in 10.0 mi Calm Calm - N/A   Clear
7:15 AM 53.6 °F 51.8 °F 94% 30.21 in 7.0 mi Calm Calm - N/A   Clear
7:35 AM 53.6 °F 51.8 °F 94% 30.22 in 7.0 mi Calm Calm - N/A   Clear
7:55 AM 53.6 °F 51.8 °F 94% 30.21 in 10.0 mi Calm Calm - N/A   Clear
8:15 AM 53.6 °F 51.8 °F 94% 30.22 in 7.0 mi Calm Calm - N/A   Clear
8:35 AM 53.6 °F 53.6 °F 100% 30.22 in 7.0 mi Calm Calm - N/A   Clear
8:55 AM 55.4 °F 53.6 °F 94% 30.22 in 7.0 mi Calm Calm - N/A   Clear
9:15 AM 59.0 °F 55.4 °F 88% 30.22 in 7.0 mi Calm Calm - N/A   Clear
9:35 AM 60.8 °F 55.4 °F 82% 30.22 in 10.0 mi Calm Calm - N/A   Clear
9:55 AM 62.6 °F 55.4 °F 77% 30.22 in 10.0 mi Calm Calm - N/A   Clear
10:15 AM 64.4 °F 55.4 °F 73% 30.22 in 10.0 mi Calm Calm - N/A   Clear
10:35 AM 66.2 °F 57.2 °F 73% 30.21 in 10.0 mi Calm Calm - N/A   Clear
10:55 AM 68.0 °F 55.4 °F 64% 30.21 in 10.0 mi Calm Calm - N/A   Clear
11:15 AM 69.8 °F 53.6 °F 56% 30.20 in 10.0 mi NE 3.5 mph - N/A   Clear
11:35 AM 71.6 °F 55.4 °F 57% 30.20 in 10.0 mi NNE 3.5 mph - N/A   Clear
12:35 PM 75.2 °F 55.4 °F 50% 30.17 in 10.0 mi ENE 5.8 mph - N/A   Clear
12:55 PM 75.2 °F 53.6 °F 47% 30.16 in 10.0 mi SE 3.5 mph - N/A   Clear
1:15 PM 75.2 °F 53.6 °F 47% 30.16 in 10.0 mi Calm Calm - N/A   Clear
3:35 PM 78.8 °F 53.6 °F 42% 30.09 in 10.0 mi SW 5.8 mph - N/A   Clear
4:15 PM 78.8 °F 53.6 °F 42% 30.07 in 10.0 mi South 4.6 mph - N/A   Scattered Clouds
5:15 PM 77.0 °F 53.6 °F 44% 30.06 in 10.0 mi South 5.8 mph - N/A   Scattered Clouds
6:15 PM 75.2 °F 55.4 °F 50% 30.05 in 10.0 mi SSW 4.6 mph - N/A   Clear
6:35 PM 75.2 °F 55.4 °F 50% 30.05 in 10.0 mi SSW 3.5 mph - N/A   Clear
6:55 PM 73.4 °F 55.4 °F 53% 30.05 in 10.0 mi SW 3.5 mph - N/A   Clear
7:55 PM 69.8 °F 57.2 °F 64% 30.05 in 10.0 mi Calm Calm - N/A   Clear
8:15 PM 68.0 °F 59.0 °F 73% 30.05 in 10.0 mi Calm Calm - N/A   Clear
8:35 PM 68.0 °F 59.0 °F 73% 30.05 in 10.0 mi Calm Calm - N/A   Clear
8:55 PM 66.2 °F 59.0 °F 78% 30.05 in 10.0 mi Calm Calm - N/A   Clear
9:15 PM 68.0 °F 59.0 °F 73% 30.05 in 10.0 mi ESE 3.5 mph - N/A   Clear
9:35 PM 64.4 °F 59.0 °F 83% 30.05 in 10.0 mi Calm Calm - N/A   Clear
9:55 PM 64.4 °F 59.0 °F 83% 30.05 in 10.0 mi SSE 3.5 mph - N/A   Clear
10:15 PM 64.4 °F 59.0 °F 83% 30.05 in 10.0 mi SSE 3.5 mph - N/A   Clear
10:35 PM 64.4 °F 59.0 °F 83% 30.06 in 10.0 mi South 4.6 mph - N/A   Clear
10:55 PM 62.6 °F 59.0 °F 88% 30.05 in 10.0 mi SSE 3.5 mph - N/A   Clear
11:15 PM 64.4 °F 59.0 °F 83% 30.05 in 10.0 mi SSE 3.5 mph - N/A   Clear
11:35 PM 64.4 °F 59.0 °F 83% 30.05 in 10.0 mi South 4.6 mph - N/A   Clear
11:55 PM 62.6 °F 59.0 °F 88% 30.05 in 10.0 mi South 3.5 mph - N/A   Clear